Weather History for Sydney Airport, New South Wales

Change the Weather History Date:

Wednesday, May 8, 2013

  Actual Average Record
Temperature  
Mean Temperature 62 °F -  
Max Temperature 71 °F 67 °F - ()
Min Temperature 54 °F 50 °F - ()
Degree Days  
Heating Degree Days 2    
Growing Degree Days 12 (Base 50)    
Moisture  
Dew Point 53 °F    
Average Humidity 69    
Maximum Humidity 88    
Minimum Humidity 32    
Precipitation  
Precipitation 0.00 in 0.13 in - ()
Sea Level Pressure  
Sea Level Pressure 30.39 in    
Wind  
Wind Speed 6 mph ()    
Max Wind Speed 12 mph    
Max Gust Speed -    
Visibility 8.2 miles    
Events Rain    
T = Trace of Precipitation, MM = Missing Value Source: Averaged Metar Reports

Daily Weather History Graph

Daily Weather History Graph

Search for Another Location

Airport:

Trip Planner

Search our weather history database for the weather conditions in past years. The results will help you decide how hot, cold, wet, or windy it might be!

Date:

Astronomy

May. 08, 2013 Rise Set
Actual Time 6:35 AM AEST 5:08 PM AEST
Civil Twilight 6:08 AM AEST 5:34 PM AEST
Nautical Twilight 5:39 AM AEST 6:04 PM AEST
Astronomical Twilight 5:09 AM AEST 6:33 PM AEST
Moon 4:39 AM AEST (5/8) 3:56 PM AEST (5/8)
Length of Visible Light 11h 25m
Length of Day
10h 32m
Waning Crescent, 4% of the Moon is Illuminated
May 8
Waning Crescent
May 10
New
May 18
First Quarter
May 25
Full
Jun 1
Last Quarter

Hourly Weather History & Observations

Time (AEST) Temp. Dew Point Humidity Pressure Visibility Wind Dir Wind Speed Gust Speed Precip Events Conditions
12:00 AM 59 °F 52 °F 71% 30.39 in 19 mi WNW 5.8 mph - -   Partly Cloudy
12:00 AM 59.0 °F 51.8 °F 77% 30.39 in 6.2 mi WNW 5.8 mph - N/A   Scattered Clouds
12:30 AM 59.0 °F 53.6 °F 82% 30.39 in 6.2 mi North 6.9 mph - N/A Rain Light Rain Showers
1:00 AM 57.2 °F 53.6 °F 88% 30.39 in 6.2 mi NW 10.4 mph - N/A   Scattered Clouds
1:30 AM 59.0 °F 53.6 °F 82% 30.39 in 6.2 mi NNW 5.8 mph - N/A   Partly Cloudy
2:00 AM 57.2 °F 53.6 °F 88% 30.39 in 6.2 mi North 4.6 mph - N/A   Partly Cloudy
2:30 AM 57.2 °F 51.8 °F 82% 30.36 in 6.2 mi North 4.6 mph - N/A   Partly Cloudy
3:00 AM 56 °F 52 °F 82% 30.39 in 19 mi North 6.9 mph - -   Partly Cloudy
3:00 AM 55.4 °F 51.8 °F 88% 30.36 in 6.2 mi North 6.9 mph - N/A   Scattered Clouds
3:30 AM 57.2 °F 51.8 °F 82% 30.36 in 6.2 mi NNW 6.9 mph - N/A   Partly Cloudy
4:00 AM 56 °F 51 °F 80% 30.39 in - NNW 8.1 mph - -  
4:00 AM 55.4 °F 51.8 °F 88% 30.36 in 6.2 mi NNW 8.1 mph - N/A   Partly Cloudy
4:30 AM 55.4 °F 51.8 °F 88% 30.39 in 6.2 mi NNW 6.9 mph - N/A   Partly Cloudy
5:00 AM 53.6 °F 50.0 °F 88% 30.39 in - NNW 8.1 mph - N/A   Clear
5:30 AM 55.4 °F 51.8 °F 88% 30.39 in 6.2 mi NNW 8.1 mph - N/A   Scattered Clouds
6:00 AM 55 °F 50 °F 77% 30.41 in 16 mi NNW 8.1 mph - -   Mostly Cloudy
6:00 AM 55.4 °F 50.0 °F 82% 30.39 in 6.2 mi NNW 8.1 mph - N/A   Mostly Cloudy
6:30 AM 53.6 °F 50.0 °F 88% 30.39 in 6.2 mi NW 9.2 mph - N/A   Mostly Cloudy
7:00 AM 57 °F 50 °F 72% 30.43 in - NNW 5.8 mph - -  
7:00 AM 57.2 °F 50.0 °F 77% 30.42 in 6.2 mi NNW 5.8 mph - N/A   Scattered Clouds
7:30 AM 57.2 °F 50.0 °F 77% 30.42 in 6.2 mi NNW 6.9 mph - N/A   Mostly Cloudy
8:00 AM 59.0 °F 51.8 °F 77% 30.42 in 6.2 mi NNW 5.8 mph - N/A   Mostly Cloudy
8:30 AM 60.8 °F 51.8 °F 72% 30.45 in 6.2 mi NW 6.9 mph - N/A   Mostly Cloudy
9:00 AM 63 °F 53 °F 62% 30.45 in 16 mi NW 6.9 mph - -   Mostly Cloudy
9:00 AM 62.6 °F 53.6 °F 72% 30.45 in 6.2 mi NW 6.9 mph - N/A   Mostly Cloudy
9:30 AM 62.6 °F 53.6 °F 72% 30.45 in 6.2 mi NW 8.1 mph - N/A   Mostly Cloudy
10:00 AM 65 °F 53 °F 56% 30.46 in - NNW 8.1 mph - -  
10:00 AM 66.2 °F 53.6 °F 64% 30.45 in 6.2 mi NNW 8.1 mph - N/A   Mostly Cloudy
10:30 AM 68.0 °F 53.6 °F 60% 30.42 in 6.2 mi NNW 6.9 mph - N/A   Mostly Cloudy
11:00 AM 68.0 °F 55.4 °F 64% 30.42 in 6.2 mi WNW 5.8 mph - N/A   Mostly Cloudy
11:30 AM 68.0 °F 53.6 °F 60% 30.42 in 6.2 mi West 5.8 mph - N/A   Mostly Cloudy
12:00 PM 70 °F 53 °F 45% 30.41 in 16 mi West 4.6 mph - -   Partly Cloudy
12:00 PM 69.8 °F 53.6 °F 56% 30.39 in 6.2 mi West 4.6 mph - N/A   Mostly Cloudy
12:30 PM 69.8 °F 53.6 °F 56% 30.39 in 6.2 mi South 4.6 mph - N/A   Scattered Clouds
1:00 PM 69 °F 52 °F 43% 30.38 in - SSE 5.8 mph - -  
1:00 PM 69.8 °F 51.8 °F 53% 30.36 in 6.2 mi SSE 5.8 mph - N/A   Scattered Clouds
1:30 PM 69.8 °F 53.6 °F 56% 30.36 in 6.2 mi SSE 5.8 mph - N/A   Mostly Cloudy
2:00 PM 71.6 °F 46.4 °F 41% 30.36 in 6.2 mi ESE 6.9 mph - N/A   Mostly Cloudy
2:30 PM 71.6 °F 46.4 °F 41% 30.36 in 6.2 mi East 11.5 mph - N/A   Scattered Clouds
3:00 PM 71 °F 47 °F 32% 30.36 in 16 mi East 10.4 mph - -   Partly Cloudy
3:00 PM 71.6 °F 48.2 °F 43% 30.33 in 6.2 mi East 10.4 mph - N/A   Scattered Clouds
3:30 PM 69.8 °F 50.0 °F 49% 30.33 in 6.2 mi East 11.5 mph - N/A   Scattered Clouds
4:00 PM 68 °F 52 °F 47% 30.36 in - East 10.4 mph - -  
4:00 PM 68.0 °F 51.8 °F 56% 30.33 in 6.2 mi East 10.4 mph - N/A   Scattered Clouds
4:30 PM 68.0 °F 51.8 °F 56% 30.36 in 6.2 mi NE 9.2 mph - N/A   Scattered Clouds
5:00 PM 66.2 °F 53.6 °F 64% 30.36 in 6.2 mi ENE 8.1 mph - N/A   Scattered Clouds
5:30 PM 66.2 °F 53.6 °F 64% 30.36 in 6.2 mi ENE 6.9 mph - N/A   Partly Cloudy
6:00 PM 66 °F 54 °F 57% 30.39 in 19 mi ENE 8.1 mph - -   Partly Cloudy
6:00 PM 66.2 °F 55.4 °F 68% 30.36 in - NE 8.1 mph - N/A   Clear
6:30 PM 64.4 °F 55.4 °F 73% 30.39 in - ENE 8.1 mph - N/A   Clear
7:00 PM 64 °F 56 °F 68% 30.40 in - ENE 6.9 mph - -  
7:00 PM 64.4 °F 55.4 °F 73% 30.39 in - ENE 6.9 mph - N/A   Clear
7:30 PM 64.4 °F 55.4 °F 73% 30.39 in - ENE 5.8 mph - N/A   Clear
8:00 PM 66.2 °F 55.4 °F 68% 30.39 in - North 5.8 mph - N/A   Clear
8:30 PM 64.4 °F 57.2 °F 77% 30.39 in 6.2 mi North 5.8 mph - N/A   Partly Cloudy
9:00 PM 63 °F 56 °F 71% 30.41 in 19 mi WNW 5.8 mph - -   Partly Cloudy
9:00 PM 62.6 °F 55.4 °F 77% 30.39 in 6.2 mi WNW 5.8 mph - N/A   Partly Cloudy
9:30 PM 62.6 °F 55.4 °F 77% 30.39 in 6.2 mi WNW 5.8 mph - N/A   Partly Cloudy
10:00 PM 62 °F 55 °F 72% 30.42 in - WNW 5.8 mph - -  
10:00 PM 62.6 °F 55.4 °F 77% 30.39 in - WNW 5.8 mph - N/A   Clear
10:30 PM 62.6 °F 55.4 °F 77% 30.39 in - WNW 5.8 mph - N/A   Clear
11:00 PM 60.8 °F 53.6 °F 77% 30.39 in - NW 4.6 mph - N/A   Clear
11:30 PM 60.8 °F 53.6 °F 77% 30.39 in - NNW 4.6 mph - N/A   Clear